LRBM Weather Reports


time (UTC)temp
C
wind
direction
speed
KPH
gust
KPH
rain 1hr
cm
rain 24hr
cm
rain mn
cm
humidity
%
barometer
mb
20260505063336 16 3.2 0.0 0.00 0.00 0.00 52 1016.0
20260505061835 13 3.2 0.0 0.00 0.00 0.00 55 1016.0
20260505060336 13 3.2 0.0 0.00 0.00 0.00 55 1016.0
20260505054835 12 3.2 0.0 0.00 0.00 0.00 63 1016.0
20260505053336 12 3.2 0.0 0.00 0.00 0.00 63 1016.0
20260505051835 10 110 8.0 0.0 0.00 0.00 0.00 71 1016.0
20260505050335 10 110 8.0 0.0 0.00 0.00 0.00 71 1016.0
20260505040334 6 0 0.0 0.0 0.00 0.00 0.00 87 1016.0
20260505034835 6 90 8.0 0.0 0.00 0.00 0.00 81 1016.0
20260505033335 6 90 8.0 0.0 0.00 0.00 0.00 81 1016.0
20260505031835 5 100 9.7 0.0 0.00 0.00 0.00 81 1016.0
20260505030335 5 100 9.7 0.0 0.00 0.00 0.00 81 1016.0
20260505024835 7 90 8.0 0.0 0.00 0.00 0.00 76 1016.0
20260505023335 7 90 8.0 0.0 0.00 0.00 0.00 76 1016.0
20260505021835 7 80 11.3 0.0 0.00 0.00 0.00 71 1016.0
20260505020335 7 80 11.3 0.0 0.00 0.00 0.00 71 1016.0
20260505014835 7 90 11.3 0.0 0.00 0.00 0.00 76 1016.0
20260505013336 7 90 11.3 0.0 0.00 0.00 0.00 76 1016.0
20260505011835 8 80 3.2 0.0 0.00 0.00 0.00 66 1016.0
20260505010336 8 80 3.2 0.0 0.00 0.00 0.00 66 1016.0
20260505004835 8 60 4.8 0.0 0.00 0.00 0.00 66 1016.0
20260505003335 8 60 4.8 0.0 0.00 0.00 0.00 66 1016.0
20260505001836 8 90 4.8 0.0 0.00 0.00 0.00 66 1016.0
20260505000335 8 90 4.8 0.0 0.00 0.00 0.00 66 1016.0
20260504234835 8 90 9.7 0.0 0.00 0.00 0.00 66 1016.0
20260504233335 8 90 9.7 0.0 0.00 0.00 0.00 66 1016.0
20260504231835 10 70 8.0 0.0 0.00 0.00 0.00 62 1016.0
20260504230335 10 70 8.0 0.0 0.00 0.00 0.00 62 1016.0
20260504224835 10 80 4.8 0.0 0.00 0.00 0.00 62 1016.0
20260504223335 10 80 4.8 0.0 0.00 0.00 0.00 62 1016.0
20260504221858 10 3.2 0.0 0.00 0.00 0.00 67 1016.0
20260504220335 10 3.2 0.0 0.00 0.00 0.00 67 1016.0
20260504214835 11 90 8.0 0.0 0.00 0.00 0.00 62 1016.0
20260504213351 11 90 8.0 0.0 0.00 0.00 0.00 62 1016.0
20260504211835 10 90 8.0 0.0 0.00 0.00 0.00 71 1016.0
20260504210335 10 90 8.0 0.0 0.00 0.00 0.00 71 1016.0
20260504204835 12 50 4.8 0.0 0.00 0.00 0.00 58 1016.0
20260504203336 12 50 4.8 0.0 0.00 0.00 0.00 58 1016.0
20260504201835 13 30 4.8 0.0 0.00 0.00 0.00 51 1016.0
20260504200336 13 30 4.8 0.0 0.00 0.00 0.00 51 1016.0
20260504194835 15 4.8 0.0 0.00 0.00 0.00 48 1016.0
20260504193336 15 4.8 0.0 0.00 0.00 0.00 48 1016.0
20260504191835 16 340 9.7 0.0 0.00 0.00 0.00 45 1016.0
20260504190335 16 340 9.7 0.0 0.00 0.00 0.00 45 1016.0
20260504184835 16 1.6 0.0 0.00 0.00 0.00 48 1016.0
20260504183346 16 1.6 0.0 0.00 0.00 0.00 48 1016.0
20260504181835 17 360 4.8 0.0 0.00 0.00 0.00 43 1015.0
20260504180335 17 360 4.8 0.0 0.00 0.00 0.00 43 1015.0
20260504174835 20 350 8.0 0.0 0.00 0.00 0.00 38 1015.0
20260504173336 20 350 8.0 0.0 0.00 0.00 0.00 38 1015.0
20260504171835 22 300 4.8 0.0 0.00 0.00 0.00 27 1015.0
20260504170335 22 300 4.8 0.0 0.00 0.00 0.00 27 1015.0
20260504160336 23 270 14.5 0.0 0.00 0.00 0.00 24 1015.0
20260504150335 25 280 14.5 0.0 0.00 0.00 0.00 21 1015.0
20260504140336 25 280 14.5 0.0 0.00 0.00 0.00 21 1016.0
20260504130335 25 270 20.9 0.0 0.00 0.00 0.00 22 1017.0
20260504110336 23 270 22.5 0.0 0.00 0.00 0.00 27 1018.0
20260504100335 22 270 22.5 0.0 0.00 0.00 0.00 29 1018.0
20260504081835 17 250 11.3 0.0 0.00 0.00 0.00 46 1019.0
20260504080335 17 250 11.3 0.0 0.00 0.00 0.00 46 1019.0
20260504070336 13 270 4.8 0.0 0.00 0.00 0.00 55 1020.0